Fernwood, MS

5:30 PM CST on February 27, 2017 (GMT -0600)
McComb-Pike County-Lewis

Weather History for KMCB - December, 2012

Change the Weather History Date:

Sunday, December 9, 2012

  Actual Average Record
Temperature  
Mean Temperature 66 °F -  
Max Temperature 77 °F 63 °F 80 °F (1972)
Min Temperature 55 °F 41 °F 24 °F (1978)
Cooling Degree Days 1    
Growing Degree Days 16 (Base 50)    
Moisture  
Dew Point 63 °F    
Average Humidity 90    
Maximum Humidity 100    
Minimum Humidity 71    
Precipitation  
Precipitation 0.01 in - - ()
Sea Level Pressure  
Sea Level Pressure 29.94 in    
Wind  
Wind Speed 5 mph (SSE)    
Max Wind Speed 14 mph    
Max Gust Speed 16 mph    
Visibility 8 miles    
Events Fog    
Averages and records for this station are not official NWS values.
T = Trace of Precipitation, MM = Missing Value Source: NWS Daily Summary

Daily Weather History Graph

Daily Weather History Graph

Search for Another Location

Airport or City:

Trip Planner

Search our weather history database for the weather conditions in past years. The results will help you decide how hot, cold, wet, or windy it might be!

Date:

Astronomy

Dec. 09, 2012 Rise Set
Actual Time 6:49 AM CST 4:59 PM CST
Civil Twilight 6:22 AM CST 5:26 PM CST
Nautical Twilight 5:52 AM CST 5:56 PM CST
Astronomical Twilight 5:22 AM CST 6:25 PM CST
Moon 2:34 AM CST (12/9) 1:56 PM CST (12/9)
Length of Visible Light 11h 03m
Length of Day
10h 10m
Waning Crescent, 18% of the Moon is Illuminated
Dec 9
Waning Crescent
Dec 13
New
Dec 19
First Quarter
Dec 28
Full
Jan 4
Last Quarter

Hourly Weather History & Observations

Time (CST) Temp. Dew Point Humidity Pressure Visibility Wind Dir Wind Speed Gust Speed Precip Events Conditions
12:53 AM 55.9 °F 55.0 °F 97% 29.96 in 10.0 mi Calm Calm - N/A   Clear
1:53 AM 57.0 °F 55.0 °F 93% 29.95 in 10.0 mi Calm Calm - N/A   Clear
2:23 AM 55.4 °F 53.6 °F 94% 29.96 in 9.0 mi Calm Calm - N/A   Scattered Clouds
2:31 AM 55.4 °F 55.4 °F 100% 29.96 in 8.0 mi Calm Calm - N/A   Mostly Cloudy
2:53 AM 57.0 °F 55.9 °F 96% 29.95 in 10.0 mi Calm Calm - N/A   Overcast
3:10 AM 57.2 °F 55.4 °F 94% 29.96 in 1.8 mi Calm Calm - N/A   Overcast
3:19 AM 57.2 °F 57.2 °F 100% 29.97 in 0.2 mi South 3.5 mph - N/A Fog Fog
3:53 AM 59.0 °F 59.0 °F 100% 29.95 in 0.2 mi South 3.5 mph - 0.01 in Fog Fog
4:36 AM 60.8 °F 60.8 °F 100% 29.96 in 0.5 mi South 4.6 mph - N/A Fog Fog
4:48 AM 60.8 °F 60.8 °F 100% 29.96 in 1.2 mi SSE 5.8 mph - N/A   Overcast
4:53 AM 60.1 °F 60.1 °F 100% 29.95 in 1.5 mi SSE 5.8 mph - N/A   Overcast
5:07 AM 60.8 °F 60.8 °F 100% 29.97 in 2.0 mi SSE 4.6 mph - N/A   Overcast
5:31 AM 60.8 °F 60.8 °F 100% 29.98 in 4.0 mi South 4.6 mph - N/A   Overcast
5:53 AM 61.0 °F 60.1 °F 97% 29.98 in 5.0 mi SSE 6.9 mph - N/A   Overcast
6:53 AM 60.1 °F 60.1 °F 100% 29.99 in 3.0 mi SE 3.5 mph - N/A   Overcast
7:11 AM 60.8 °F 60.8 °F 100% 30.00 in 2.0 mi SE 4.6 mph - N/A   Overcast
7:53 AM 61.0 °F 60.1 °F 97% 30.00 in 3.0 mi SSE 4.6 mph - N/A   Overcast
8:07 AM 60.8 °F 60.8 °F 100% 30.00 in 4.0 mi SSE 5.8 mph - N/A   Overcast
8:38 AM 62.6 °F 60.8 °F 94% 30.00 in 8.0 mi SSE 9.2 mph - N/A   Mostly Cloudy
8:49 AM 64.4 °F 62.6 °F 94% 30.01 in 10.0 mi SSE 8.1 mph - N/A   Mostly Cloudy
8:53 AM 64.0 °F 62.1 °F 93% 30.00 in 10.0 mi SSE 9.2 mph - N/A   Mostly Cloudy
9:02 AM 64.4 °F 62.6 °F 94% 30.01 in 10.0 mi SSE 9.2 mph - N/A   Scattered Clouds
9:35 AM 66.2 °F 62.6 °F 88% 30.01 in 10.0 mi SSE 10.4 mph - N/A   Mostly Cloudy
9:53 AM 66.9 °F 63.0 °F 87% 30.01 in 10.0 mi SSE 10.4 mph - N/A   Overcast
10:53 AM 70.0 °F 64.9 °F 84% 29.99 in 10.0 mi South 10.4 mph - N/A   Overcast
11:53 AM 72.0 °F 66.0 °F 81% 29.96 in 10.0 mi South 10.4 mph - N/A   Overcast
12:00 PM 71.6 °F 66.2 °F 83% 29.96 in 10.0 mi South 11.5 mph - N/A   Overcast
12:53 PM 73.0 °F 66.9 °F 81% 29.93 in 10.0 mi South 8.1 mph - N/A   Overcast
1:20 PM 75.2 °F 66.2 °F 73% 29.92 in 10.0 mi South 13.8 mph - N/A   Mostly Cloudy
1:40 PM 75.2 °F 66.2 °F 73% 29.91 in 10.0 mi South 10.4 mph - N/A   Mostly Cloudy
1:50 PM 75.2 °F 66.2 °F 73% 29.91 in 10.0 mi South 8.1 mph - N/A   Mostly Cloudy
1:53 PM 75.0 °F 66.0 °F 73% 29.90 in 10.0 mi South 8.1 mph - N/A   Mostly Cloudy
2:11 PM 75.2 °F 66.2 °F 73% 29.91 in 10.0 mi SSW 6.9 mph - N/A   Mostly Cloudy
2:53 PM 77.0 °F 66.9 °F 71% 29.89 in 10.0 mi South 9.2 mph - N/A   Mostly Cloudy
3:09 PM 75.2 °F 66.2 °F 73% 29.90 in 10.0 mi SSE 12.7 mph - N/A   Mostly Cloudy
3:16 PM 75.2 °F 66.2 °F 73% 29.90 in 10.0 mi SSE 11.5 mph - N/A   Scattered Clouds
3:53 PM 73.9 °F 66.9 °F 79% 29.89 in 10.0 mi South 9.2 mph - N/A   Partly Cloudy
4:53 PM 72.0 °F 68.0 °F 87% 29.89 in 10.0 mi South 5.8 mph - N/A   Clear
5:53 PM 70.0 °F 66.9 °F 90% 29.88 in 10.0 mi South 5.8 mph - N/A   Clear
6:53 PM 69.1 °F 66.9 °F 93% 29.88 in 10.0 mi South 6.9 mph - N/A   Partly Cloudy
7:53 PM 69.1 °F 66.0 °F 90% 29.89 in 9.0 mi South 8.1 mph - N/A   Clear
8:37 PM 68.0 °F 66.2 °F 94% 29.89 in 7.0 mi South 8.1 mph - N/A   Partly Cloudy
8:53 PM 68.0 °F 66.9 °F 96% 29.87 in 7.0 mi South 6.9 mph - N/A   Mostly Cloudy
9:53 PM 70.0 °F 68.0 °F 93% 29.88 in 9.0 mi South 12.7 mph - N/A   Overcast
10:53 PM 70.0 °F 68.0 °F 93% 29.89 in 10.0 mi South 11.5 mph - N/A   Overcast
11:53 PM 70.0 °F 66.9 °F 90% 29.88 in 10.0 mi SSW 9.2 mph 16.1 mph N/A   Overcast